FENGYUN 1C DEB

Satellite information

Favourite Embed

Satellite Type and Status

DEBRISIN ORBIT

Key statistics

Satellite FENGYUN 1C DEB at a glance.

Uptime

9555

Days in orbit

Revolutions

≈ 14.3

Per day

Orbit

SSO

Sun Synchronous Orbit

Inclination

99.8

Latest

Satellite identification and parameters

Extended collection of information and parameters for FENGYUN 1C DEB.

Object identification

Identified? True

Debris? True

Object name: FENGYUN 1C DEB

International designator: 1999-025AVT

Object number (NORAD): 30833

Object ID (CCSDS): 30833

Country: PEOPLES REPUBLIC OF CHINA (PRC)

Current information (Y/N): Y

RCS size: SMALL

Orbital parameters

Period: 100.967 minutes

Inclination: 99.8284 deg

SMA: 7182.562 km

Apoapsis: 827.236 km

Periapsis: 781.618 km

RAAN: 310.2457 deg

Eccentricy: 0.0031756

Argument of periapsis: 277.3915 deg

Mean anomaly: 82.3653 deg

Mean motion: 14.262108 rev/day

Mean motion (dot): 0.00000903 rev/day2

B* drag term: 0.00039749 1/REarth

Two-line elements (TLE)

Creation date: July 3, 2025, 5:26 p.m.

Reference frame: TEME

Reference center: EARTH

Epoch: July 3, 2025, 1:46 a.m. UTC

TLE line 0: 0 FENGYUN 1C DEB

TLE line 1: 1 30833U 99025AVT 25184.07375388 .00000903 00000-0 39749-3 0 9990

TLE line 2: 2 30833 99.8284 310.2457 0031756 277.3915 82.3653 14.26210800620927

Live tracking on map

Real-time ground track for satellite FENGYUN 1C DEB.

In-orbit conjunctions

A list of the most updated potential collisions computed for object FENGYUN 1C DEB.

Target Orbit TCA Probability of collision Miss distance Type
SL-16 DEB LEO 2024-11-16 05:39:39 0.0001140943 359.0 (m) DEBRIS
SL-16 DEB LEO 2024-11-12 05:03:16 0.0001699354 800.0 (m) DEBRIS
FENGYUN 1C DEB SSO 2024-11-09 22:48:10 0.0001580927 724.0 (m) DEBRIS

Associated space launch

Chinese polar orbiting meteorological satellite

FENGYUN 1C DEB was lifted into orbit during the mission ‘Long March 4B | Feng Yun 1C’, on board a Long March 4B space rocket.

The launch took place on May 10, 1999, 1:33 a.m. from Launch Complex 7.

For more information about the launch, click the button.

Launch to space Long March 4B | Feng Yun 1C
Long March 4B | Feng Yun 1C

Agency: N/A

Status: Launch Successful

Launch date: May 10, 1999, 1:33 a.m. UTC

Rocket: Long March 4B

Launch pad: Launch Complex 7

Location: Taiyuan Satellite Launch Center, People's Republic of China

...

Latest news about this satellite

There are no fresh news available about this satellite. Check back as we update our databases every day.


Newsletter sign-up

Weekly statistics, charts and insights to help you stay on top of the space industry.